Tracking 19293 objects as of 20-Nov-2018
HD Live streaming from Space Station
objects crossing your sky now

METEOR 3M

Track METEOR 3M now!
10-day predictions
METEOR 3M is classified as:


NORAD ID: 27001
Int'l Code: 2001-056A
Perigee: 1,000.2 km
Apogee: 1,021.6 km
Inclination: 99.5 °
Period: 105.2 minutes
Semi major axis: 7381 km
RCS: 7.1203 m2 (large)
Launch date: December 10, 2001
Source: Commonwealth of Independent States (former USSR) (CIS)
Launch site: TYURATAM MISSILE AND SPACE COMPLEX (TTMTR)
aabbcc
Your satellite tracking list
Your tracking list is empty




NASA's NSSDC Master Catalog

Two Line Element Set (TLE):
1 27001U 01056A   18324.42400434 -.00000040  00000-0  48659-5 0  9993
2 27001  99.4880  99.0346 0014461  92.8687 325.7612 13.68828114846564
Source of the keplerian elements: AFSPC